User: anonymous   Login
Location: Vale
(35.4830°N, 81.3830°W)
Time: 03:58:58
(UTC-05:00)
Language:

Oscar 11 - Orbit

View from above orbital plane
View from above orbital plane
View from above satellite
View from above satellite

Ground track
Ground track

The orbit data is extracted from the following two-line orbital elements,

1 14781U 84021B   17057.16693541  .00000154  00000-0  25272-4 0  9993
2 14781  97.7136 106.8802 0008121 193.9468 166.1523 14.82861190773891
Epoch (UTC): 26 February 2017 04:00:23
Eccentricity: 0.0008121
inclination: 97.7136°
perigee height: 614 km
apogee height: 626 km
right ascension of ascending node: 106.8802°
argument of perigee: 193.9468°
revolutions per day: 14.82861190
mean anomaly at epoch: 166.1523°
orbit number at epoch: 77389

The dashed part of the orbit path shows where the satellite is in the earth's shadow,  

DLR